timestamp,wind_dir_avg,wind_spd_avg,wind_spd_max_dir,wind_spd_gust,battery_voltage,lat,long
2022-08-22 00:04:00+00:00,231.0,5.88,225.0,6.61,12.49,47.59359,-54.27349
2022-08-22 00:14:00+00:00,227.0,5.42,227.0,7.23,12.41,47.59359,-54.27349
2022-08-22 00:24:00+00:00,230.0,6.04,233.0,7.16,12.41,47.59359,-54.27349
2022-08-22 00:34:00+00:00,228.0,5.88,226.0,6.74,12.41,47.59359,-54.27349
2022-08-22 00:44:00+00:00,235.0,6.37,252.0,7.14,12.41,47.59359,-54.27349
2022-08-22 00:54:00+00:00,234.0,7.32,233.0,7.9,12.41,47.59359,-54.27349
2022-08-22 01:04:00+00:00,232.0,5.84,237.0,7.04,12.41,47.59359,-54.27349
2022-08-22 01:14:01+00:00,232.0,6.64,232.0,7.77,12.41,47.59359,-54.27349
2022-08-22 01:24:01+00:00,234.0,6.64,227.0,7.45,12.41,47.59359,-54.27349
2022-08-22 01:34:01+00:00,235.0,6.7,237.0,7.32,12.41,47.59359,-54.27349
2022-08-22 01:44:01+00:00,236.0,6.54,230.0,7.08,12.41,47.59359,-54.27349
2022-08-22 01:54:01+00:00,241.0,6.37,243.0,7.08,12.41,47.59359,-54.27349
2022-08-22 02:04:01+00:00,239.0,6.64,239.0,7.16,12.41,47.59359,-54.27349
2022-08-22 02:14:00+00:00,242.0,6.58,241.0,7.49,12.41,47.59359,-54.27349
2022-08-22 02:24:00+00:00,244.0,6.98,248.0,7.57,12.41,47.59359,-54.27349
2022-08-22 02:34:00+00:00,255.0,6.2,256.0,7.16,12.41,47.59359,-54.27349
2022-08-22 02:44:00+00:00,257.0,6.81,258.0,8.26,12.41,47.59359,-54.27349
2022-08-22 02:54:00+00:00,257.0,7.1,258.0,7.93,12.41,47.59359,-54.27349
2022-08-22 03:04:00+00:00,264.0,8.06,257.0,8.68,12.41,47.59359,-54.27349
2022-08-22 03:14:00+00:00,253.0,7.53,246.0,8.38,12.41,47.59359,-54.27349
2022-08-22 03:24:00+00:00,253.0,6.88,255.0,7.77,12.41,47.59359,-54.27349
2022-08-22 03:34:00+00:00,255.0,7.03,256.0,7.74,12.41,47.59359,-54.27349
2022-08-22 03:44:00+00:00,255.0,6.8,257.0,7.41,12.41,47.59359,-54.27349
2022-08-22 03:54:00+00:00,257.0,7.15,253.0,8.04,12.41,47.59359,-54.27349
2022-08-22 04:04:00+00:00,240.0,6.57,243.0,7.7,12.41,47.59359,-54.27349
2022-08-22 04:14:00+00:00,236.0,7.25,239.0,7.88,12.33,47.59359,-54.27349
2022-08-22 04:24:00+00:00,244.0,5.69,237.0,7.3,12.33,47.59359,-54.27349
2022-08-22 04:34:00+00:00,253.0,7.04,253.0,7.47,12.33,47.59359,-54.27349
2022-08-22 04:44:00+00:00,242.0,7.28,240.0,8.33,12.33,47.59359,-54.27349
2022-08-22 04:54:00+00:00,255.0,6.49,255.0,6.88,12.33,47.59359,-54.27349
2022-08-22 05:04:00+00:00,256.0,6.29,254.0,6.82,12.33,47.59359,-54.27349
2022-08-22 05:14:00+00:00,251.0,6.45,251.0,7.02,12.41,47.59359,-54.27349
2022-08-22 05:24:00+00:00,246.0,6.24,237.0,6.72,12.41,47.59359,-54.27349
2022-08-22 05:34:00+00:00,247.0,6.65,243.0,7.32,12.41,47.59359,-54.27349
2022-08-22 05:44:00+00:00,238.0,7.32,235.0,7.86,12.41,47.59359,-54.27349
2022-08-22 05:54:00+00:00,243.0,6.21,249.0,6.86,12.41,47.59359,-54.27349
2022-08-22 06:04:00+00:00,237.0,7.39,237.0,8.26,12.41,47.59359,-54.27349
2022-08-22 06:14:01+00:00,243.0,6.74,237.0,7.71,12.33,47.59359,-54.27349
2022-08-22 06:24:01+00:00,249.0,6.72,237.0,7.35,12.33,47.59359,-54.27349
2022-08-22 06:34:01+00:00,241.0,7.77,238.0,8.67,12.33,47.59359,-54.27349
2022-08-22 06:44:01+00:00,237.0,7.36,237.0,8.19,12.33,47.59359,-54.27349
2022-08-22 06:54:01+00:00,236.0,8.13,232.0,9.24,12.33,47.59359,-54.27349
2022-08-22 07:04:01+00:00,239.0,6.91,234.0,7.59,12.33,47.59359,-54.27349
2022-08-22 07:14:00+00:00,248.0,7.4,241.0,8.65,12.33,47.59359,-54.27349
2022-08-22 07:24:00+00:00,234.0,7.47,233.0,8.02,12.33,47.59359,-54.27349
2022-08-22 07:34:00+00:00,249.0,6.27,245.0,7.26,12.33,47.59359,-54.27349
2022-08-22 07:44:00+00:00,238.0,7.14,236.0,7.74,12.33,47.59359,-54.27349
2022-08-22 07:54:00+00:00,254.0,7.16,254.0,8.65,12.33,47.59359,-54.27349
2022-08-22 08:04:00+00:00,258.0,6.72,272.0,7.62,12.33,47.59359,-54.27349
2022-08-22 08:14:00+00:00,251.0,6.66,238.0,7.66,12.25,47.59359,-54.27349
2022-08-22 08:24:00+00:00,253.0,5.97,242.0,7.86,12.25,47.59359,-54.27349
2022-08-22 08:34:00+00:00,248.0,6.96,250.0,8.27,12.25,47.59359,-54.27349
2022-08-22 08:44:00+00:00,246.0,6.34,246.0,7.04,12.25,47.59359,-54.27349
2022-08-22 08:54:00+00:00,269.0,6.44,266.0,6.93,12.25,47.59359,-54.27349
2022-08-22 09:04:00+00:00,252.0,6.82,252.0,7.65,12.25,47.59359,-54.27349
2022-08-22 09:14:00+00:00,236.0,7.81,232.0,8.92,12.25,47.59359,-54.27349
2022-08-22 09:24:00+00:00,236.0,7.71,232.0,8.39,12.25,47.59359,-54.27349
2022-08-22 09:34:00+00:00,232.0,6.93,231.0,7.74,12.25,47.59359,-54.27349
2022-08-22 09:44:00+00:00,234.0,6.77,237.0,7.73,12.25,47.59359,-54.27349
2022-08-22 09:54:00+00:00,229.0,5.76,233.0,7.38,12.25,47.59359,-54.27349
2022-08-22 10:04:00+00:00,229.0,5.47,227.0,7.5,12.25,47.59359,-54.27349
2022-08-22 10:14:00+00:00,235.0,5.67,236.0,6.86,12.41,47.59359,-54.27349
2022-08-22 10:24:00+00:00,232.0,6.44,227.0,7.87,12.41,47.59359,-54.27349
2022-08-22 10:34:00+00:00,230.0,6.34,233.0,7.66,12.41,47.59359,-54.27349
2022-08-22 10:44:00+00:00,237.0,6.87,238.0,7.62,12.41,47.59359,-54.27349
2022-08-22 10:54:00+00:00,236.0,6.92,234.0,7.71,12.41,47.59359,-54.27349
2022-08-22 11:04:00+00:00,234.0,6.16,242.0,8.1,12.41,47.59359,-54.27349
2022-08-22 11:14:00+00:00,231.0,6.76,229.0,7.57,12.73,47.59359,-54.27349
2022-08-22 11:24:00+00:00,233.0,6.16,229.0,7.02,12.73,47.59359,-54.27349
2022-08-22 11:34:00+00:00,236.0,6.33,234.0,7.29,12.73,47.59359,-54.27349
2022-08-22 11:44:00+00:00,232.0,5.55,233.0,6.71,12.73,47.59359,-54.27349
2022-08-22 11:54:00+00:00,232.0,5.4,236.0,6.94,12.73,47.59359,-54.27349
2022-08-22 12:04:00+00:00,234.0,5.62,239.0,6.93,12.73,47.59359,-54.27349
2022-08-22 12:14:00+00:00,236.0,6.11,239.0,6.92,13.21,47.59359,-54.27349
2022-08-22 12:24:00+00:00,227.0,5.99,233.0,6.98,13.21,47.59359,-54.27349
2022-08-22 12:34:00+00:00,228.0,5.5,230.0,6.41,13.21,47.59359,-54.27349
2022-08-22 12:44:00+00:00,227.0,5.95,220.0,7.2,13.21,47.59359,-54.27349
2022-08-22 12:54:00+00:00,228.0,5.56,231.0,6.75,13.21,47.59359,-54.27349
2022-08-22 13:04:00+00:00,219.0,6.19,225.0,7.02,13.21,47.59359,-54.27349
2022-08-22 13:14:00+00:00,215.0,5.97,215.0,6.84,13.6,47.59359,-54.27349
2022-08-22 13:24:00+00:00,216.0,6.4,220.0,7.07,13.6,47.59359,-54.27349
2022-08-22 13:34:00+00:00,212.0,5.83,214.0,7.38,13.6,47.59359,-54.27349
2022-08-22 13:44:00+00:00,209.0,6.36,202.0,7.28,13.6,47.59359,-54.27349
2022-08-22 13:54:00+00:00,210.0,7.23,214.0,8.1,13.6,47.59359,-54.27349
2022-08-22 14:04:00+00:00,202.0,7.39,198.0,8.45,13.6,47.59359,-54.27349
2022-08-22 14:14:00+00:00,205.0,8.78,205.0,9.52,14.24,47.59359,-54.27349
2022-08-22 14:24:00+00:00,211.0,9.29,209.0,10.26,14.24,47.59359,-54.27349
2022-08-22 14:34:00+00:00,207.0,8.94,207.0,9.68,14.24,47.59359,-54.27349
2022-08-22 14:44:00+00:00,207.0,9.39,208.0,9.87,14.24,47.59359,-54.27349
2022-08-22 14:54:00+00:00,206.0,9.29,207.0,10.06,14.24,47.59359,-54.27349
2022-08-22 15:04:00+00:00,209.0,9.89,210.0,10.62,14.24,47.59359,-54.27349
2022-08-22 15:14:01+00:00,205.0,9.73,211.0,10.87,13.68,47.59359,-54.27349
2022-08-22 15:24:01+00:00,204.0,10.14,204.0,10.99,13.68,47.59359,-54.27349
2022-08-22 15:34:01+00:00,205.0,10.52,206.0,11.41,13.68,47.59359,-54.27349
2022-08-22 15:44:01+00:00,201.0,10.14,206.0,11.56,13.68,47.59359,-54.27349
2022-08-22 15:54:01+00:00,207.0,10.88,204.0,11.91,13.68,47.59359,-54.27349
2022-08-22 16:04:01+00:00,204.0,10.28,208.0,11.37,13.68,47.59359,-54.27349
2022-08-22 16:14:01+00:00,204.0,10.53,203.0,11.48,13.53,47.59359,-54.27349
2022-08-22 16:24:01+00:00,203.0,10.55,203.0,11.83,13.53,47.59359,-54.27349
2022-08-22 16:34:01+00:00,205.0,10.54,207.0,11.9,13.53,47.59359,-54.27349
2022-08-22 16:44:01+00:00,203.0,10.62,200.0,11.83,13.53,47.59359,-54.27349
2022-08-22 16:54:01+00:00,205.0,11.43,205.0,12.68,13.53,47.59359,-54.27349
2022-08-22 17:04:01+00:00,207.0,11.49,206.0,12.67,13.53,47.59359,-54.27349
2022-08-22 17:14:00+00:00,203.0,10.58,208.0,11.75,14.32,47.59359,-54.27349
2022-08-22 17:24:00+00:00,206.0,12.05,209.0,13.07,14.32,47.59359,-54.27349
2022-08-22 17:34:00+00:00,202.0,11.54,208.0,13.16,14.32,47.59359,-54.27349
2022-08-22 17:44:00+00:00,204.0,11.11,205.0,12.26,14.32,47.59359,-54.27349
2022-08-22 17:54:00+00:00,207.0,11.39,210.0,12.96,14.32,47.59359,-54.27349
2022-08-22 18:04:00+00:00,213.0,12.34,213.0,13.12,14.32,47.59359,-54.27349
2022-08-22 18:14:01+00:00,214.0,11.58,212.0,12.76,14.0,47.59359,-54.27349
2022-08-22 18:24:01+00:00,214.0,11.28,214.0,12.63,14.0,47.59359,-54.27349
2022-08-22 18:34:01+00:00,215.0,10.91,214.0,11.92,14.0,47.59359,-54.27349
2022-08-22 18:44:01+00:00,214.0,11.7,214.0,12.9,14.0,47.59359,-54.27349
2022-08-22 18:54:01+00:00,210.0,11.26,211.0,12.55,14.0,47.59359,-54.27349
2022-08-22 19:04:01+00:00,213.0,10.66,213.0,12.12,14.0,47.59359,-54.27349
2022-08-22 19:14:00+00:00,212.0,10.55,216.0,12.07,13.68,47.59359,-54.27349
2022-08-22 19:24:00+00:00,211.0,11.17,210.0,12.31,13.68,47.59359,-54.27349
2022-08-22 19:34:00+00:00,209.0,10.86,207.0,11.92,13.68,47.59359,-54.27349
2022-08-22 19:44:00+00:00,209.0,10.58,209.0,11.51,13.68,47.59359,-54.27349
2022-08-22 19:54:00+00:00,212.0,10.54,214.0,11.67,13.68,47.59359,-54.27349
2022-08-22 20:04:00+00:00,209.0,10.02,208.0,11.69,13.68,47.59359,-54.27349
2022-08-22 20:14:01+00:00,213.0,10.2,216.0,11.62,13.68,47.59359,-54.27349
2022-08-22 20:24:01+00:00,210.0,9.6,210.0,11.26,13.68,47.59359,-54.27349
2022-08-22 20:34:01+00:00,207.0,8.45,210.0,9.87,13.68,47.59359,-54.27349
2022-08-22 20:44:01+00:00,212.0,9.77,211.0,11.04,13.68,47.59359,-54.27349
2022-08-22 20:54:01+00:00,209.0,9.31,206.0,10.61,13.68,47.59359,-54.27349
2022-08-22 21:04:01+00:00,212.0,9.77,214.0,10.96,13.68,47.59359,-54.27349
2022-08-22 21:14:01+00:00,211.0,9.79,210.0,11.03,13.53,47.59359,-54.27349
2022-08-22 21:24:01+00:00,211.0,9.62,207.0,10.58,13.53,47.59359,-54.27349
2022-08-22 21:34:01+00:00,211.0,8.72,212.0,10.08,13.53,47.59359,-54.27349
2022-08-22 21:44:01+00:00,214.0,9.16,214.0,10.38,13.53,47.59359,-54.27349
2022-08-22 21:54:01+00:00,214.0,8.99,215.0,10.13,13.53,47.59359,-54.27349
2022-08-22 22:04:01+00:00,217.0,9.39,208.0,12.56,13.53,47.59359,-54.27349
2022-08-22 22:14:00+00:00,216.0,8.88,215.0,10.1,13.05,47.59359,-54.27349
2022-08-22 22:24:00+00:00,217.0,8.73,217.0,9.87,13.05,47.59359,-54.27349
2022-08-22 22:34:00+00:00,221.0,9.38,222.0,10.19,13.05,47.59359,-54.27349
2022-08-22 22:44:00+00:00,228.0,7.53,234.0,8.54,13.05,47.59359,-54.27349
2022-08-22 22:54:00+00:00,221.0,6.33,228.0,7.68,13.05,47.59359,-54.27349
2022-08-22 23:04:00+00:00,231.0,6.05,234.0,7.49,13.05,47.59359,-54.27349
2022-08-22 23:14:00+00:00,227.0,5.18,230.0,6.32,12.49,47.59359,-54.27349
2022-08-22 23:24:00+00:00,229.0,6.61,229.0,7.67,12.49,47.59359,-54.27349
2022-08-22 23:34:00+00:00,228.0,6.19,230.0,7.06,12.49,47.59359,-54.27349
2022-08-22 23:44:00+00:00,230.0,5.61,231.0,6.73,12.49,47.59359,-54.27349
2022-08-22 23:54:00+00:00,240.0,6.92,239.0,7.74,12.49,47.59359,-54.27349
